Faith, SD

10:45 PM MDT on April 22, 2018 (GMT -0600)
Faith

Weather History for KD07 - March, 2013

Change the Weather History Date:

Friday, March 15, 2013

  Actual Average Record
Temperature  
Mean Temperature 39 °F 32 °F  
Max Temperature 53 °F 42 °F 82 °F (2015)
Min Temperature 24 °F 22 °F 12 °F (2002)
Degree Days  
Heating Degree Days 26 33  
Month to date heating degree days 478 530  
Since 1 July heating degree days 5821 6218  
Cooling Degree Days 0 0  
Month to date cooling degree days 0 0  
Year to date cooling degree days 0 0  
Moisture  
Dew Point 29 °F    
Average Humidity 71    
Maximum Humidity 100    
Minimum Humidity 41    
Precipitation  
Precipitation 0.00 in 0.03 in 0.16 in (2014)
Month to date precipitation 0.08 0.37  
Year to date precipitation 0.65 0.99  
Sea Level Pressure  
Sea Level Pressure 29.94 in    
Wind  
Wind Speed 11 mph (NE)    
Max Wind Speed 24 mph    
Max Gust Speed 28 mph    
T = Trace of Precipitation, MM = Missing Value Source: NWS Daily Summary

Daily Weather History Graph

Daily Weather History Graph

Search for Another Location

Airport or City:

Astronomy

Mar. 15, 2013 Rise Set
Actual Time 6:59 AM MDT 6:54 PM MDT
Civil Twilight 6:30 AM MDT 7:23 PM MDT
Nautical Twilight 5:56 AM MDT 7:58 PM MDT
Astronomical Twilight 5:21 AM MDT 8:32 PM MDT
Moon 8:39 AM MDT (3/15) 11:23 PM MDT (3/15)
Length of Visible Light 12h 53m
Length of Day
11h 54m
Waxing Crescent, 16% of the Moon is Illuminated
Mar 15
Waxing Crescent
Mar 19
First Quarter
Mar 27
Full
Apr 2
Last Quarter
Apr 10
New

Hourly Weather History & Observations

Time (MDT) Temp. Windchill Dew Point Humidity Pressure Visibility Wind Dir Wind Speed Gust Speed Precip Events Conditions
12:56 AM 37.0 °F 27.0 °F 34.0 °F 89% 29.94 in - NNE 18.4 mph - N/A   Unknown
1:56 AM 32.0 °F 21.2 °F 30.9 °F 96% 29.96 in - NNE 16.1 mph - N/A   Unknown
2:56 AM 30.0 °F 20.0 °F 30.0 °F 100% 29.90 in - NE 12.7 mph - N/A   Unknown
3:56 AM 30.9 °F 20.7 °F 30.0 °F 96% 29.91 in - NNE 13.8 mph - N/A   Unknown
4:56 AM 30.0 °F 18.7 °F 30.0 °F 100% 29.88 in - NE 16.1 mph - N/A   Unknown
5:56 AM 30.0 °F 22.4 °F 30.0 °F 100% 29.89 in - NE 8.1 mph - N/A   Unknown
6:56 AM 30.0 °F 23.2 °F 30.0 °F 100% 29.87 in - SE 6.9 mph - N/A   Unknown
7:56 AM 30.0 °F 22.4 °F 30.0 °F 100% 29.92 in - NE 8.1 mph - N/A   Unknown
8:56 AM 30.0 °F 21.7 °F 30.0 °F 100% 29.91 in - ENE 9.2 mph - N/A   Unknown
9:56 AM 28.0 °F 18.6 °F 28.0 °F 100% 29.90 in - SE 10.4 mph - N/A   Unknown
10:56 AM 28.9 °F 23.9 °F 28.0 °F 96% 29.93 in - SSE 4.6 mph - N/A   Unknown
11:56 AM 32.0 °F 27.5 °F 28.9 °F 88% 29.92 in - Variable 4.6 mph - N/A   Unknown
12:56 PM 36.0 °F 33.3 °F 30.0 °F 79% 29.91 in - SSW 3.5 mph - N/A   Unknown
1:56 PM 45.0 °F 41.8 °F 32.0 °F 60% 29.87 in - West 5.8 mph - N/A   Unknown
2:56 PM 52.0 °F - 32.0 °F 47% 29.84 in - North 8.1 mph - N/A   Unknown
3:56 PM 52.0 °F - 30.0 °F 43% 29.85 in - NNE 9.2 mph - N/A   Unknown
4:56 PM 52.0 °F - 28.9 °F 41% 29.87 in - Variable 5.8 mph - N/A   Unknown
5:56 PM 48.0 °F - 28.9 °F 48% 29.91 in - ENE 10.4 mph - N/A   Unknown
6:56 PM 41.0 °F 34.3 °F 27.0 °F 57% 29.95 in - NE 11.5 mph - N/A   Unknown
7:56 PM 34.0 °F 23.0 °F 24.1 °F 67% 30.03 in - NNE 18.4 mph - N/A   Unknown
8:56 PM 28.9 °F 18.6 °F 23.0 °F 78% 30.09 in - NNE 12.7 mph - N/A   Unknown
9:56 PM 30.0 °F 17.9 °F 24.1 °F 79% 30.12 in - North 18.4 mph - N/A   Unknown
10:56 PM 28.0 °F 15.3 °F 24.1 °F 85% 30.13 in - North 18.4 mph - N/A   Unknown
11:56 PM 25.0 °F 13.1 °F 21.0 °F 85% 30.14 in - North 13.8 mph - N/A   Unknown